FW6831 Weather Reports


Display with metric or nautical units.
time (UTC)temp
F
wind
direction
speed
MPH
gust
MPH
rain 1hr
in
rain 24hr
in
rain mn
in
humidity
%
barometer
mb
20260903214047 68 0 0.0 0.0 0.00 0.00 0.00 80 1020.9
20260903213544 68 0 0.0 0.0 0.00 0.00 0.00 81 1020.8
20260903213059 66 0 0.0 0.0 0.00 0.00 0.00 88 1020.9
20260903212545 64 0 0.0 0.0 0.00 0.00 0.00 91 1020.7
20260903212044 63 0 0.0 0.0 0.00 0.00 0.00 93 1020.7
20260903211602 62 0 0.0 0.0 0.00 0.00 0.00 93 1020.7
20260903211046 61 0 0.0 0.0 0.00 0.00 0.00 94 1020.7
20260903210546 61 0 0.0 0.0 0.00 0.00 0.00 95 1020.6
20260903210107 60 0 0.0 0.0 0.00 0.00 0.00 97 1020.4
20260903205543 59 0 0.0 0.0 0.00 0.00 0.00 97 1020.4
20260903205046 58 0 0.0 0.0 0.00 0.00 0.00 97 1020.4
20260903204602 58 0 0.0 0.0 0.00 0.00 0.00 96 1020.1
20260903204042 57 0 0.0 0.0 0.00 0.00 0.00 96 1020.1
20260903203543 57 0 0.0 0.0 0.00 0.00 0.00 96 1020.1
20260903203104 57 0 0.0 0.0 0.00 0.00 0.00 96 1020.1
20260903202543 57 0 0.0 0.0 0.00 0.00 0.00 96 1020.1
20260903202044 57 0 0.0 0.0 0.00 0.00 0.00 96 1020.0
20260903201556 57 0 0.0 0.0 0.00 0.00 0.00 96 1020.0
20260903201044 57 0 0.0 0.0 0.00 0.00 0.00 96 1019.8
20260903200544 57 0 0.0 0.0 0.00 0.00 0.00 96 1019.8
20260903200054 56 0 0.0 0.0 0.00 0.00 0.00 96 1019.7
20260903195546 56 0 0.0 0.0 0.00 0.00 0.00 95 1019.8
20260903195043 56 0 0.0 0.0 0.00 0.00 0.00 95 1019.6
20260903194559 57 0 0.0 0.0 0.00 0.00 0.00 95 1019.5
20260903194044 57 0 0.0 0.0 0.00 0.00 0.00 95 1019.5
20260903193543 58 0 0.0 0.0 0.00 0.00 0.00 95 1019.5
20260903193101 59 0 0.0 0.0 0.00 0.00 0.00 96 1019.5
20260903192543 59 0 0.0 0.0 0.00 0.00 0.00 96 1019.5
20260903192042 59 0 0.0 0.0 0.00 0.00 0.00 96 1019.4
20260903191600 59 0 0.0 0.0 0.00 0.00 0.00 97 1019.3
20260903191044 59 0 0.0 0.0 0.00 0.00 0.00 97 1019.4
20260903190543 59 0 0.0 0.0 0.00 0.00 0.00 97 1019.4
20260903190056 58 0 0.0 0.0 0.00 0.00 0.00 97 1019.4
20260903185543 57 0 0.0 0.0 0.00 0.00 0.00 96 1019.3
20260903185043 57 0 0.0 0.0 0.00 0.00 0.00 96 1019.3
20260903184551 57 0 0.0 0.0 0.00 0.00 0.00 96 1019.2
20260903184042 57 0 0.0 0.0 0.00 0.00 0.00 95 1019.1
20260903183543 58 0 0.0 0.0 0.00 0.00 0.00 96 1019.1
20260903183058 57 0 0.0 0.0 0.00 0.00 0.00 96 1018.9
20260903182541 57 0 0.0 0.0 0.00 0.00 0.00 96 1019.1
20260903182044 57 0 0.0 0.0 0.00 0.00 0.00 95 1018.9
20260903181602 58 0 0.0 0.0 0.00 0.00 0.00 95 1018.8
20260903181043 58 0 0.0 0.0 0.00 0.00 0.00 95 1018.9
20260903180547 58 0 0.0 0.0 0.00 0.00 0.00 96 1018.8
20260903180117 58 0 0.0 0.0 0.00 0.00 0.00 95 1018.8
20260903175546 58 309 0.0 0.0 0.00 0.00 0.00 96 1018.8
20260903175043 58 0 0.0 0.0 0.00 0.00 0.00 95 1018.7
20260903174604 57 0 0.0 1.0 0.00 0.00 0.00 95 1018.6
20260903174042 57 0 0.0 1.0 0.00 0.00 0.00 94 1018.7
20260903173543 57 309 0.0 1.0 0.00 0.00 0.00 94 1018.8
20260903173103 58 0 0.0 0.0 0.00 0.00 0.00 95 1018.8
20260903172547 58 0 0.0 0.0 0.00 0.00 0.00 95 1018.7
20260903172046 57 0 0.0 0.0 0.00 0.00 0.00 95 1018.8
20260903171604 57 0 0.0 0.0 0.00 0.00 0.00 94 1018.8
20260903171045 57 0 0.0 0.0 0.00 0.00 0.00 94 1018.8
20260903170543 58 0 0.0 0.0 0.00 0.00 0.00 94 1018.7
20260903170109 58 0 0.0 0.0 0.00 0.00 0.00 94 1018.7
20260903165549 58 0 0.0 1.0 0.00 0.00 0.00 94 1018.7
20260903165046 58 0 0.0 1.0 0.00 0.00 0.00 93 1018.7
20260903164610 58 310 1.0 1.0 0.00 0.00 0.00 93 1018.8
20260903164043 58 310 0.0 1.0 0.00 0.00 0.00 94 1018.8
20260903163542 58 0 0.0 0.0 0.00 0.00 0.00 94 1018.8
20260903163107 58 0 0.0 0.0 0.00 0.00 0.00 94 1018.8
20260903162543 58 0 0.0 0.0 0.00 0.00 0.00 93 1018.8
20260903162044 58 0 0.0 1.0 0.00 0.00 0.00 93 1018.8
20260903161603 58 0 0.0 1.0 0.00 0.00 0.00 93 1018.8
20260903161049 59 0 0.0 1.0 0.00 0.00 0.00 93 1018.8
20260903160543 59 0 0.0 0.0 0.00 0.00 0.00 93 1018.9
20260903160127 59 0 0.0 0.0 0.00 0.00 0.00 93 1018.8
20260903155545 59 0 0.0 0.0 0.00 0.00 0.00 93 1018.8
20260903155043 59 0 0.0 0.0 0.00 0.00 0.00 92 1018.8
20260903154605 59 0 0.0 1.0 0.00 0.00 0.00 92 1018.7
20260903154043 59 0 0.0 1.0 0.00 0.00 0.00 92 1018.8
20260903153542 59 310 0.0 1.0 0.00 0.00 0.00 92 1018.7
20260903153056 59 0 0.0 1.0 0.00 0.00 0.00 92 1018.6
20260903152546 60 310 0.0 1.0 0.00 0.00 0.00 92 1018.7
20260903152046 60 0 0.0 1.0 0.00 0.00 0.00 92 1018.7
20260903151605 60 310 0.0 1.0 0.00 0.00 0.00 92 1018.8
20260903151043 60 0 0.0 1.0 0.00 0.00 0.00 91 1018.8
20260903150544 60 0 0.0 1.0 0.00 0.00 0.00 91 1018.7
20260903145543 61 0 0.0 0.0 0.00 0.00 0.00 91 1018.7
20260903145043 61 0 0.0 0.0 0.00 0.00 0.00 90 1018.7
20260903144557 61 0 0.0 0.0 0.00 0.00 0.00 90 1018.8
20260903144045 61 0 0.0 0.0 0.00 0.00 0.00 91 1018.7
20260903143542 61 0 0.0 0.0 0.00 0.00 0.00 91 1018.7
20260903143101 61 0 0.0 0.0 0.00 0.00 0.00 90 1018.6
20260903142544 61 0 0.0 0.0 0.00 0.00 0.00 90 1018.6
20260903142043 61 0 0.0 0.0 0.00 0.00 0.00 90 1018.7
20260903141602 62 0 0.0 0.0 0.00 0.00 0.00 90 1018.7
20260903141043 62 0 0.0 0.0 0.00 0.00 0.00 89 1018.7
20260903140544 62 0 0.0 1.0 0.00 0.00 0.00 89 1018.7
20260903140100 62 0 0.0 1.0 0.00 0.00 0.00 89 1018.6
20260903135543 62 310 0.0 1.0 0.00 0.00 0.00 89 1018.6
20260903135043 62 0 0.0 0.0 0.00 0.00 0.00 89 1018.6
20260903134555 62 0 0.0 0.0 0.00 0.00 0.00 89 1018.6
20260903134042 63 0 0.0 0.0 0.00 0.00 0.00 88 1018.5
20260903133544 63 0 0.0 0.0 0.00 0.00 0.00 88 1018.5
20260903133055 63 0 0.0 0.0 0.00 0.00 0.00 88 1018.5
20260903132545 63 0 0.0 1.0 0.00 0.00 0.00 88 1018.5
20260903132043 64 0 0.0 1.0 0.00 0.00 0.00 88 1018.5
20260903131605 64 0 0.0 1.0 0.00 0.00 0.00 88 1018.6
20260903131043 64 0 0.0 0.0 0.00 0.00 0.00 87 1018.6
20260903130548 64 0 0.0 0.0 0.00 0.00 0.00 86 1018.6
20260903130125 65 0 0.0 0.0 0.00 0.00 0.00 85 1018.6
20260903125543 65 0 0.0 0.0 0.00 0.00 0.00 85 1018.6
20260903125046 65 0 0.0 0.0 0.00 0.00 0.00 85 1018.5
20260903124558 65 0 0.0 0.0 0.00 0.00 0.00 85 1018.6
20260903124044 65 0 0.0 0.0 0.00 0.00 0.00 84 1018.6
20260903123543 66 0 0.0 0.0 0.00 0.00 0.00 83 1018.6
20260903123053 66 0 0.0 0.0 0.00 0.00 0.00 84 1018.5
20260903122543 66 0 0.0 0.0 0.00 0.00 0.00 83 1018.5
20260903122047 67 0 0.0 0.0 0.00 0.00 0.00 82 1018.5
20260903121553 67 0 0.0 0.0 0.00 0.00 0.00 81 1018.5
20260903121042 68 0 0.0 0.0 0.00 0.00 0.00 80 1018.5
20260903120542 68 0 0.0 0.0 0.00 0.00 0.00 79 1018.4
20260903120105 69 0 0.0 0.0 0.00 0.00 0.00 78 1018.5
20260903115547 69 0 0.0 3.0 0.00 0.00 0.00 78 1018.5
20260903115043 70 0 0.0 3.0 0.00 0.00 0.00 77 1018.4
20260903114555 69 0 0.0 3.0 0.00 0.00 0.00 78 1018.4
20260903114049 69 0 0.0 1.0 0.00 0.00 0.00 77 1018.4
20260903113547 70 0 0.0 1.0 0.00 0.00 0.00 77 1018.4
20260903113053 70 0 0.0 1.0 0.00 0.00 0.00 77 1018.4
20260903112543 70 0 0.0 1.0 0.00 0.00 0.00 77 1018.4
20260903112044 70 0 0.0 0.0 0.00 0.00 0.00 76 1018.2
20260903111608 71 0 0.0 5.0 0.00 0.00 0.00 76 1018.2
20260903111043 71 0 0.0 5.0 0.00 0.00 0.00 77 1018.2
20260903110545 70 0 0.0 0.0 0.00 0.00 0.00 77 1018.2
20260903110123 70 0 0.0 2.0 0.00 0.00 0.00 77 1018.2
20260903105544 71 0 0.0 2.0 0.00 0.00 0.00 76 1018.2
20260903105043 71 293 0.0 3.0 0.00 0.00 0.00 76 1018.0
20260903104606 71 0 0.0 3.0 0.00 0.00 0.00 76 1018.1
20260903104042 71 0 0.0 1.0 0.00 0.00 0.00 76 1018.0
20260903103546 71 0 0.0 2.0 0.00 0.00 0.00 77 1018.0
20260903103102 71 0 0.0 2.0 0.00 0.00 0.00 77 1018.0
20260903102545 71 0 0.0 4.0 0.00 0.00 0.00 77 1018.0
20260903102049 71 0 0.0 4.0 0.00 0.00 0.00 76 1017.9
20260903101603 71 294 0.0 4.0 0.00 0.00 0.00 76 1017.9
20260903101044 71 0 0.0 4.0 0.00 0.00 0.00 76 1017.8
20260903100544 72 0 0.0 4.0 0.00 0.00 0.00 75 1017.8
20260903095544 72 0 0.0 8.0 0.00 0.00 0.00 74 1017.9
20260903095044 73 0 2.0 8.0 0.00 0.00 0.00 73 1017.7
20260903094559 73 232 1.0 6.0 0.00 0.00 0.00 73 1017.7
20260903094044 73 329 1.0 6.0 0.00 0.00 0.00 72 1017.7
20260903093545 74 188 2.0 6.0 0.00 0.00 0.00 72 1017.7
20260903093101 74 155 1.0 6.0 0.00 0.00 0.00 71 1017.6
20260903092544 74 208 1.0 6.0 0.00 0.00 0.00 71 1017.5
20260903092044 74 247 0.0 6.0 0.00 0.00 0.00 71 1017.5
20260903091557 74 54 1.0 5.0 0.00 0.00 0.00 71 1017.4
20260903091048 74 0 0.0 7.0 0.00 0.00 0.00 71 1017.4
20260903090545 74 257 1.0 7.0 0.00 0.00 0.00 70 1017.3
20260903090056 74 68 0.0 8.0 0.00 0.00 0.00 71 1017.3
20260903085543 75 158 1.0 8.0 0.00 0.00 0.00 70 1017.3
20260903085044 74 153 1.0 8.0 0.00 0.00 0.00 71 1017.2
20260903084555 74 340 0.0 5.0 0.00 0.00 0.00 71 1017.3
20260903084045 74 334 1.0 6.0 0.00 0.00 0.00 71 1017.1
20260903083545 74 239 1.0 6.0 0.00 0.00 0.00 71 1017.2
20260903083101 74 0 0.0 3.0 0.00 0.00 0.00 71 1017.1
20260903082543 75 0 0.0 3.0 0.00 0.00 0.00 71 1017.2
20260903082045 75 0 0.0 3.0 0.00 0.00 0.00 70 1017.1
20260903081605 75 0 0.0 2.0 0.00 0.00 0.00 70 1017.1
20260903081044 75 0 0.0 2.0 0.00 0.00 0.00 70 1017.1
20260903080547 76 0 0.0 3.0 0.00 0.00 0.00 69 1017.1
20260903080057 76 0 0.0 3.0 0.00 0.00 0.00 69 1017.0
20260903075545 76 0 0.0 3.0 0.00 0.00 0.00 69 1017.1
20260903075044 76 0 0.0 4.0 0.00 0.00 0.00 68 1017.0
20260903074606 76 0 0.0 4.0 0.00 0.00 0.00 68 1016.8
20260903074044 76 330 0.0 1.0 0.00 0.00 0.00 67 1016.8
20260903073545 77 0 0.0 1.0 0.00 0.00 0.00 67 1016.8
20260903073106 77 0 0.0 1.0 0.00 0.00 0.00 66 1016.8
20260903072544 77 0 0.0 0.0 0.00 0.00 0.00 65 1016.7
20260903072048 78 0 0.0 0.0 0.00 0.00 0.00 65 1016.6
20260903071600 78 0 0.0 3.0 0.00 0.00 0.00 64 1016.6
20260903071044 79 0 0.0 3.0 0.00 0.00 0.00 63 1016.5
20260903070544 79 0 0.0 2.0 0.00 0.00 0.00 63 1016.6
20260903070059 79 0 0.0 2.0 0.00 0.00 0.00 62 1016.7
20260903065545 79 228 0.0 1.0 0.00 0.00 0.00 61 1016.5
20260903065044 80 0 0.0 5.0 0.00 0.00 0.00 61 1016.5
20260903064601 80 0 0.0 5.0 0.00 0.00 0.00 60 1016.5
20260903064044 80 345 0.0 5.0 0.00 0.00 0.00 59 1016.5
20260903063545 81 0 0.0 5.0 0.00 0.00 0.00 59 1016.4
20260903063101 81 0 0.0 3.0 0.00 0.00 0.00 59 1016.4
20260903062548 81 0 0.0 4.0 0.00 0.00 0.00 58 1016.4
20260903062047 81 0 0.0 6.0 0.00 0.00 0.00 59 1016.4
20260903061600 82 152 0.0 6.0 0.00 0.00 0.00 59 1016.4
20260903061044 82 0 0.0 6.0 0.00 0.00 0.00 59 1016.4
20260903060544 82 0 0.0 2.0 0.00 0.00 0.00 59 1016.3
20260903060100 82 0 0.0 4.0 0.00 0.00 0.00 59 1016.3
20260903055544 82 0 0.0 6.0 0.00 0.00 0.00 59 1016.4
20260903055044 82 0 0.0 6.0 0.00 0.00 0.00 59 1016.4
20260903054557 82 0 0.0 6.0 0.00 0.00 0.00 58 1016.4
20260903054044 83 0 0.0 5.0 0.00 0.00 0.00 57 1016.4
20260903053546 83 79 0.0 3.0 0.00 0.00 0.00 55 1016.5
20260903053113 83 0 0.0 3.0 0.00 0.00 0.00 55 1016.4
20260903052545 83 0 0.0 8.0 0.00 0.00 0.00 55 1016.5
20260903052047 83 0 0.0 9.0 0.00 0.00 0.00 53 1016.5
20260903051557 83 0 1.0 9.0 0.00 0.00 0.00 56 1016.5
20260903051043 83 0 1.0 9.0 0.00 0.00 0.00 55 1016.5
20260903050548 83 96 0.0 5.0 0.00 0.00 0.00 55 1016.5
20260903050104 83 0 0.0 5.0 0.00 0.00 0.00 55 1016.5
20260903045544 83 0 0.0 5.0 0.00 0.00 0.00 54 1016.6
20260903045047 83 0 0.0 5.0 0.00 0.00 0.00 54 1016.7
20260903044605 84 0 0.0 3.0 0.00 0.00 0.00 54 1016.8
20260903044041 84 97 0.0 2.0 0.00 0.00 0.00 54 1016.8
20260903043545 84 0 0.0 2.0 0.00 0.00 0.00 54 1016.9
20260903043056 85 0 0.0 1.0 0.00 0.00 0.00 53 1017.0
20260903042545 84 0 0.0 2.0 0.00 0.00 0.00 54 1017.0
20260903042044 84 0 0.0 2.0 0.00 0.00 0.00 53 1017.1
20260903041554 84 0 0.0 1.0 0.00 0.00 0.00 54 1017.2
20260903041044 85 0 0.0 1.0 0.00 0.00 0.00 52 1017.1
20260903040544 85 0 0.0 1.0 0.00 0.00 0.00 53 1017.2
20260903040053 85 0 0.0 1.0 0.00 0.00 0.00 52 1017.3
20260903035544 84 0 0.0 1.0 0.00 0.00 0.00 52 1017.3
20260903035044 84 0 0.0 1.0 0.00 0.00 0.00 51 1017.3
20260903034559 84 0 0.0 1.0 0.00 0.00 0.00 52 1017.4
20260903034044 84 0 0.0 2.0 0.00 0.00 0.00 51 1017.3
20260903033543 83 0 0.0 2.0 0.00 0.00 0.00 51 1017.5
20260903033111 83 0 0.0 2.0 0.00 0.00 0.00 51 1017.5
20260903032545 83 13 0.0 1.0 0.00 0.00 0.00 51 1017.5
20260903032044 84 0 0.0 1.0 0.00 0.00 0.00 50 1017.6
20260903031554 84 0 0.0 1.0 0.00 0.00 0.00 50 1017.7
20260903031044 84 0 0.0 2.0 0.00 0.00 0.00 51 1017.8
20260903030544 84 0 0.0 2.0 0.00 0.00 0.00 49 1017.9
20260903030104 85 0 0.0 1.0 0.00 0.00 0.00 48 1018.0
20260903025543 86 0 0.0 1.0 0.00 0.00 0.00 47 1018.0
20260903025044 85 0 0.0 1.0 0.00 0.00 0.00 39 1018.1
20260903024601 86 0 0.0 1.0 0.00 0.00 0.00 41 1018.2
20260903024043 86 0 0.0 1.0 0.00 0.00 0.00 40 1018.2
20260903023543 85 0 0.0 1.0 0.00 0.00 0.00 39 1018.3
20260903023056 85 0 0.0 1.0 0.00 0.00 0.00 40 1018.5
20260903022540 85 0 0.0 0.0 0.00 0.00 0.00 40 1018.6
20260903022043 85 0 0.0 0.0 0.00 0.00 0.00 40 1018.7
20260903021606 85 0 0.0 0.0 0.00 0.00 0.00 44 1018.9
20260903021042 85 0 0.0 0.0 0.00 0.00 0.00 44 1018.8
20260903020543 84 0 0.0 0.0 0.00 0.00 0.00 46 1019.2
20260903020051 83 0 0.0 1.0 0.00 0.00 0.00 45 1019.2
20260903015544 82 0 0.0 1.0 0.00 0.00 0.00 46 1019.4
20260903015044 82 0 0.0 0.0 0.00 0.00 0.00 49 1019.5
20260903014551 82 0 0.0 0.0 0.00 0.00 0.00 50 1019.7
20260903014044 82 0 0.0 0.0 0.00 0.00 0.00 51 1019.7
20260903013543 82 0 0.0 2.0 0.00 0.00 0.00 51 1019.8
20260903013104 82 0 0.0 2.0 0.00 0.00 0.00 51 1019.8
20260903012543 81 0 0.0 2.0 0.00 0.00 0.00 51 1019.9
20260903012044 80 0 0.0 0.0 0.00 0.00 0.00 53 1020.1
20260903011555 80 0 0.0 0.0 0.00 0.00 0.00 54 1020.3
20260903011045 80 0 0.0 0.0 0.00 0.00 0.00 55 1020.4
20260903010543 81 0 0.0 0.0 0.00 0.00 0.00 53 1020.6
20260903010109 82 0 0.0 0.0 0.00 0.00 0.00 51 1020.7
20260903005544 82 0 0.0 0.0 0.00 0.00 0.00 52 1020.6
20260903005047 80 0 0.0 0.0 0.00 0.00 0.00 55 1020.7
20260903004604 79 0 0.0 0.0 0.00 0.00 0.00 55 1020.9
20260903004044 79 0 0.0 0.0 0.00 0.00 0.00 54 1020.9
20260903003543 78 0 0.0 0.0 0.00 0.00 0.00 57 1021.1
20260903003108 78 0 0.0 0.0 0.00 0.00 0.00 57 1021.1
20260903002544 79 0 0.0 0.0 0.00 0.00 0.00 58 1021.2
20260903002044 77 0 0.0 0.0 0.00 0.00 0.00 59 1021.1
20260903001554 77 0 0.0 0.0 0.00 0.00 0.00 60 1021.3
20260903001044 76 0 0.0 0.0 0.00 0.00 0.00 61 1021.4
20260903000544 76 0 0.0 0.0 0.00 0.00 0.00 63 1021.4
20260903000104 76 0 0.0 0.0 0.00 0.00 0.00 62 1021.5
20260902235544 75 0 0.0 0.0 0.00 0.00 0.00 64 1021.6
20260902235044 74 0 0.0 0.0 0.00 0.00 0.00 65 1021.6
20260902234602 74 0 0.0 0.0 0.00 0.00 0.00 65 1021.6
20260902234045 73 0 0.0 0.0 0.00 0.00 0.00 66 1021.5
20260902233544 73 0 0.0 0.0 0.00 0.00 0.00 67 1021.6
20260902233058 74 0 0.0 0.0 0.00 0.00 0.00 66 1021.5
20260902232540 73 0 0.0 0.0 0.00 0.00 0.00 68 1021.6
20260902232044 72 0 0.0 0.0 0.00 0.00 0.00 71 1021.6
20260902231555 71 0 0.0 0.0 0.00 0.00 0.00 71 1021.5
20260902231048 70 0 0.0 0.0 0.00 0.00 0.00 73 1021.7
20260902230547 70 0 0.0 0.0 0.00 0.00 0.00 74 1021.7
20260902230053 70 0 0.0 0.0 0.00 0.00 0.00 75 1021.8
20260902225543 69 0 0.0 0.0 0.00 0.00 0.00 76 1021.8
20260902225044 69 0 0.0 0.0 0.00 0.00 0.00 77 1021.8
20260902224558 68 0 0.0 0.0 0.00 0.00 0.00 78 1021.8
20260902224044 67 0 0.0 0.0 0.00 0.00 0.00 80 1022.0
20260902223544 67 0 0.0 0.0 0.00 0.00 0.00 80 1021.8
20260902223106 67 0 0.0 0.0 0.00 0.00 0.00 78 1021.8
20260902222544 67 0 0.0 0.0 0.00 0.00 0.00 81 1021.9
20260902222047 66 0 0.0 0.0 0.00 0.00 0.00 82 1021.9
20260902221616 65 0 0.0 0.0 0.00 0.00 0.00 83 1022.0
20260902221043 65 0 0.0 0.0 0.00 0.00 0.00 82 1021.8
20260902220543 65 0 0.0 0.0 0.00 0.00 0.00 82 1021.9
20260902220059 65 0 0.0 0.0 0.00 0.00 0.00 83 1021.9
20260902215544 65 0 0.0 0.0 0.00 0.00 0.00 84 1021.8
20260902215048 65 0 0.0 0.0 0.00 0.00 0.00 84 1021.6
20260902214554 64 0 0.0 0.0 0.00 0.00 0.00 88 1021.5